AISSAT 2 (40075 NORAD) Tracking and Keplerian Element Data

This shows tracking and keplerian element data for the satellite.

Feedback or suggestion? Click here.




ElementValue
Catalog40075
NameAISSAT 2
Epoch Orbit51489
Epoch Day13.19228175
Epoch Year2024
RAAN284.9096
Inclination98.34
Eccentricity0.0004015
Argument of Perigee271.7467
Mean Anonmoly88.3286
Mean Motion14.85687989
Decay Rate3.475E-05
L11 40075U 14037G 24013.19228175 .00003475 00000+0 40746-3 0 9998
L22 40075 98.3400 284.9096 0004015 271.7467 88.3286 14.85687989514891



Live tracking and technical data element details for AISSAT 2 (NORAD 40075). AISSAT 2 can be tracked NOW for your location showing map with azimuth and elevation plus other details from your city location.







IsCatalogInMostPopularTable: catalog: 40075, numindb: 24942
Update: records affected: 1



GetName: 40075 AISSAT 2

Hit Count: updated at: Fri, 19 Apr 2024 11:59:56 GMT